Regional Weather Roundup
Issued by NWS

Home | Current Version | Previous Version | Text Only | Print | Product List | Glossary Off
Versions: 1 2 3 4 5 6 7 8 9 10 11 12 13 14 15 16 17 18 19 20 21 22 23 24 25 26 27 28 29 30 31 32 33 34 35 36 37 38 39 40 41 42 43 44 45 46 47 48 49 50

739
ASUS43 KLMK 060302
RWRKY
KENTUCKY REGIONAL WEATHER ROUNDUP
NATIONAL WEATHER SERVICE LOUISVILLE KY
1000 PM EST MON DEC 05 2016

NOTE "FAIR" INDICATES FEW OR NO CLOUDS BELOW 12,000 FEET
WITH NO SIGNIFICANT WEATHER AND/OR OBSTRUCTIONS TO VISIBILITY.

KYZ001>023-026-027-061>063-070>075-060400-
WESTERN AND SOUTH CENTRAL KENTUCKY

CITY           SKY/WX    TMP DP  RH WIND       PRES   REMARKS
PADUCAH        CLOUDY    42  37  82 E7        29.82S
HENDERSON      CLOUDY    41  34  75 E8        29.86S
OWENSBORO      CLOUDY    42  36  79 E8        29.86F
HOPKINSVILLE   CLOUDY    44  40  88 E7        29.80F
BOWLING GREEN  CLOUDY    45  40  82 E6        29.85F
GLASGOW        NOT AVBL
$$

KYZ024-025-028>034-038-045-046-053-060400-
NORTH CENTRAL KENTUCKY

CITY           SKY/WX    TMP DP  RH WIND       PRES   REMARKS
LOUISVILLE/SDF CLOUDY    44  34  67 E7        29.90F
LOUISVILLE/LOU PTCLDY    44  35  70 E8        29.91F
FORT KNOX      CLOUDY    42  35  78 NE8       29.87S
$$

KYZ035>037-039>044-047>052-055>060-089>105-060400-
NORTHEAST KENTUCKY

CITY           SKY/WX    TMP DP  RH WIND       PRES   REMARKS
LEXINGTON      CLOUDY    44  35  70 E13       29.92F
COVINGTON      CLOUDY    39  33  79 E10       29.95S WCI  32
FRANKFORT      MOCLDY    44  34  67 E9        29.91F
$$

KYZ054-064>069-076>088-106>120-060400-
SOUTHEAST KENTUCKY

CITY           SKY/WX    TMP DP  RH WIND       PRES   REMARKS
JACKSON        CLOUDY    44  36  73 VRB5      29.92S
LONDON         CLOUDY    47  38  71 NE6       29.90F
SOMERSET       CLOUDY    45  37  76 SE8       29.89F
MIDDLESBORO    CLOUDY    49  43  79 S3        29.90F
MONTICELLO     CLOUDY    47  42  83 CALM      29.87F
$$





USA.gov is the U.S. government's official web portal to all federal, state and local government web resources and services.